Regional Weather Roundup
Issued by NWS

Home | Current Version | Previous Version | Text Only | Print | Product List | Glossary On
Versions: 1 2 3 4 5 6 7 8 9 10 11 12 13 14 15 16 17 18 19 20 21 22 23 24 25 26 27 28 29 30 31 32 33 34 35 36 37 38 39 40 41 42 43 44 45 46 47 48 49 50
000
ASUS45 KABQ 181301
RWRNM
NEW MEXICO REGIONAL WEATHER ROUNDUP
NATIONAL WEATHER SERVICE ALBUQUERQUE NM
600 AM MST SAT NOV 18 2017

NOTE: "FAIR" MEANS FEW OR NO CLOUDS BELOW 12,000 FEET AGL WITH NO
       SIGNIFICANT WEATHER OR OBSTRUCTIONS TO VISION.

      THIS PRODUCT IS RELEASED AS TWO VERSIONS.  ONE VERSION NEAR
      THE TOP OF THE HOUR CONTAINING PRELIMINARY DATA FROM ALBUQUERQUE
      AND OTHER STATIONS.  A FINAL VERSION WITH ADDITIONAL DATA IS
      ISSUED ABOUT 10 MINUTES AFTER THE HOUR.

NMZ501-503-504-510>518-181400-
NORTHWEST PLATEAU/NORTHCENTRAL MOUNTAINS

CITY           SKY/WX    TMP DP  RH WIND       PRES   REMARKS
FARMINGTON     FAIR      28  13  53 W14       30.24R WCI  17
LOS ALAMOS     FAIR      31  12  44 N16G23    30.21R WCI  20
SANTA FE       FAIR      32  17  54 N13       30.20R WCI  22
TAOS           FAIR      26  12  55 NW9G23    30.24R WCI  17
ANGEL FIRE     FAIR      23  10  59 N9        30.19R WCI  13

$$
NMZ402-403-502-505>509-181400-
WESTCENTRAL MOUNTAINS/SOUTHWEST MOUNTAINS

CITY           SKY/WX    TMP DP  RH WIND       PRES   REMARKS
GALLUP         FAIR      21  18  88 CALM      30.30R
GRANTS         FAIR      24  13  63 N9        30.31R WCI  14
SILVER CITY    FAIR      37  30  78 N8        30.19R WCI  30

$$
NMZ407-409-411-412-181400-
SOUTHERN DESERTS

CITY           SKY/WX    TMP DP  RH WIND       PRES   REMARKS
DEMING         FAIR      42  28  57 W10       30.15R
LAS CRUCES     FAIR      53  27  36 N9        30.15R
HOLLOMAN AFB   FAIR      54  30  41 N14       30.15R
ALAMOGORDO     FAIR      55  32  41 N17       30.12R
T OR C         FAIR      54  33  45 NW13G18   30.16R

$$
NMZ519>523-181400-
CENTRAL VALLEYS/CENTRAL HIGHLANDS

CITY           SKY/WX    TMP DP  RH WIND       PRES   REMARKS
ALBUQUERQUE    FAIR      38  13  35 N16G22    30.26R WCI  29
DOUBLE EAGLE   PTCLDY    32  10  40 E10G18    30.28  WCI  24
MORIARTY ARPT  FAIR      35   7  31 NW17      30.21R WCI  25
CLINES CORNERS NOT AVBL
BELEN          FAIR      35  16  45 NE9       30.27R WCI  28
SOCORRO        FAIR      42  26  53 N8        30.21R

$$
NMZ524>526-539-540-181400-
SOUTHCENTRAL MOUNTAINS

CITY           SKY/WX    TMP DP  RH WIND       PRES   REMARKS
RUIDOSO        FAIR      39  30  70 W23G31    30.15R WCI  29

$$
NMZ527>531-181400-
NORTHEAST HIGHLANDS/NORTHEAST PLAINS

CITY           SKY/WX    TMP DP  RH WIND       PRES   REMARKS
LAS VEGAS      FAIR      33  14  45 N15       30.12R WCI  23
RATON          FAIR      31  19  61 NE9       30.14R WCI  23
CLAYTON        FAIR      34  26  72 N30G39    30.12R WCI  20

$$
NMZ532>537-181400-
EASTCENTRAL PLAINS

CITY           SKY/WX    TMP DP  RH WIND       PRES   REMARKS
SANTA ROSA     FAIR      44  19  36 NW14G21   30.10R
TUCUMCARI      FAIR      44  31  60 NE21G30   30.11R
CANNON AFB     FAIR      43  34  70 N21G28    30.10R
CLOVIS AIRPORT MOCLDY    43  31  62 N35G43    30.10R

$$
NMZ028-029-538-181400-
SOUTHEAST PLAINS

CITY           SKY/WX    TMP DP  RH WIND       PRES   REMARKS
ROSWELL        FAIR      61  33  35 NW22G38   30.00R
ARTESIA        FAIR      61  32  33 NW21      30.01R
CARLSBAD       FAIR      55  29  36 N10       30.01R
HOBBS          CLEAR     59  32  36 NW21G28   29.99R


$$



USA.gov is the U.S. government's official web portal to all federal, state and local government web resources and services.